Date String (YYYY-MM-DD hh:mm:ss) UTC,Instrument flags,Ambient pressure (hPa),Sample flow (lpm),Bypass flow (lpm),Sample temperature (°C),Ambient temperature (°C),ASC tube jacket temperature (°C),LED temperature (°C),Box temperature (°C),Sample RH (%),Span deviation,Mass concentration (μg/m³),Mass concentration (μg/m³),Mass concentration (μg/m³)
DateTimeUTC,F1_M11,P_M11,Q1_M11,Q2_M11,T1_M11,T2_M11,T3_M11,T4_M11,T5_M11,U1_M11,ZSPAN_M11,X0_M11,X2_M11,X1_M11
2021-09-26 23:00:00,,0824.7,4.99,0.00,29.3,27.4,00.0,38.2,31.0,12.4,-000.1,0018.18,0006.69,0005.36
2021-09-26 23:01:00,,0824.7,4.99,0.00,29.1,25.8,00.0,38.2,30.5,12.6,0000.6,0017.84,0006.63,0005.36
2021-09-26 23:02:00,,0824.7,5.01,0.00,29.0,25.8,00.0,38.2,30.4,12.7,0000.9,0017.34,0006.57,0005.35
2021-09-26 23:03:00,,0824.8,5.00,0.00,29.0,26.2,00.0,38.1,30.6,12.7,0001.2,0015.80,0006.50,0005.34
2021-09-26 23:04:00,,0824.7,5.00,0.00,29.0,26.7,00.0,38.1,30.7,12.6,0000.6,0014.94,0006.48,0005.34
2021-09-26 23:05:00,,0824.7,5.00,0.00,29.0,27.2,00.0,38.1,30.8,12.5,0000.7,0014.43,0006.50,0005.33
2021-09-26 23:06:00,,0824.7,5.00,0.00,29.1,27.6,00.0,38.1,30.9,12.4,0001.2,0014.66,0006.45,0005.34
2021-09-26 23:07:00,,0824.7,5.02,0.00,29.1,27.9,00.0,38.1,31.0,11.9,0001.2,0014.49,0006.46,0005.35
2021-09-26 23:08:00,,0824.7,4.99,0.00,29.2,28.2,00.0,38.1,31.1,11.9,0001.4,0014.11,0006.41,0005.34
2021-09-26 23:09:00,,0824.6,5.00,0.00,29.3,28.1,00.0,38.2,31.1,12.0,0001.9,0014.33,0006.36,0005.33
2021-09-26 23:10:00,,0824.7,5.00,0.00,29.2,26.5,00.0,38.2,30.7,12.0,0001.7,0014.27,0006.36,0005.31
2021-09-26 23:11:00,,0824.6,5.00,0.00,29.0,25.6,00.0,38.1,30.3,12.1,0002.0,0014.17,0006.34,0005.31
2021-09-26 23:12:00,,0824.6,5.00,0.00,29.0,26.0,00.0,38.1,30.4,12.1,0001.0,0014.32,0006.33,0005.30
2021-09-26 23:13:00,,0824.7,5.00,0.00,28.9,26.4,00.0,38.1,30.6,12.2,0000.5,0014.46,0006.29,0005.28
2021-09-26 23:14:00,,0824.7,4.99,0.00,29.0,26.9,00.0,38.1,30.7,12.3,0000.5,0014.46,0006.29,0005.28
2021-09-26 23:15:00,,0824.7,5.01,0.00,29.0,27.3,00.0,38.1,30.8,12.5,0000.8,0014.43,0006.28,0005.29
2021-09-26 23:16:00,,0824.7,5.00,0.00,29.1,27.7,00.0,38.1,30.9,12.1,0001.1,0014.25,0006.26,0005.28
2021-09-26 23:17:00,,0824.6,5.00,0.00,29.1,28.0,00.0,38.1,31.0,12.4,0001.0,0013.86,0006.21,0005.27
2021-09-26 23:18:00,,0824.6,4.99,0.00,29.2,28.2,00.0,38.1,31.1,12.6,0001.0,0013.73,0006.19,0005.26
2021-09-26 23:19:00,,0824.7,4.99,0.00,29.2,27.6,00.0,38.1,30.9,12.0,0000.6,0013.59,0006.17,0005.27
2021-09-26 23:20:00,,0824.6,5.00,0.00,29.1,25.9,00.0,38.1,30.4,12.3,0000.5,0013.67,0006.12,0005.27
2021-09-26 23:21:00,,0824.6,5.01,0.00,28.9,25.6,00.0,38.1,30.3,12.4,0001.1,0013.51,0006.10,0005.28
2021-09-26 23:22:00,,0824.7,5.00,0.00,28.9,26.1,00.0,38.1,30.5,12.7,0001.0,0013.63,0006.07,0005.27
2021-09-26 23:23:00,,0824.6,4.99,0.00,28.9,26.5,00.0,38.0,30.6,11.9,0002.1,0015.09,0006.09,0005.27
2021-09-26 23:24:00,,0824.6,5.00,0.00,28.9,27.0,00.0,38.0,30.7,11.4,0002.7,0015.89,0006.10,0005.27
2021-09-26 23:25:00,,0824.7,5.00,0.00,29.0,27.4,00.0,38.0,30.8,11.6,0003.0,0017.37,0006.07,0005.26
2021-09-26 23:26:00,,0824.7,5.01,0.00,29.0,27.8,00.0,38.0,30.9,11.8,0003.4,0018.53,0006.06,0005.24
2021-09-26 23:27:00,,0824.7,4.99,0.00,29.1,28.1,00.0,38.0,31.0,12.2,0002.8,0018.60,0006.06,0005.24
2021-09-26 23:28:00,,0824.8,5.00,0.00,29.2,28.3,00.0,38.1,31.1,12.0,0002.7,0019.10,0006.12,0005.25
2021-09-26 23:29:00,,0824.7,5.00,0.00,29.2,27.9,00.0,38.1,31.0,12.0,0002.5,0019.68,0006.19,0005.26
2021-09-26 23:30:00,,0824.7,5.00,0.00,29.1,26.1,00.0,38.1,30.5,11.4,0002.7,0019.26,0006.22,0005.28
2021-09-26 23:31:00,,0824.7,5.01,0.00,29.0,25.7,00.0,38.1,30.4,11.6,0002.7,0018.95,0006.27,0005.31
2021-09-26 23:32:00,,0824.6,4.99,0.00,28.9,26.1,00.0,38.1,30.5,11.8,0002.3,0019.06,0006.29,0005.33
2021-09-26 23:33:00,,0824.7,4.99,0.00,28.9,26.5,00.0,38.0,30.5,11.9,0003.0,0018.67,0006.34,0005.36
2021-09-26 23:34:00,,0824.6,5.00,0.00,28.9,26.9,00.0,38.0,30.7,11.8,0002.9,0017.01,0006.36,0005.40
2021-09-26 23:35:00,,0824.7,5.01,0.00,29.0,27.3,00.0,38.0,30.8,11.5,0002.8,0015.90,0006.41,0005.45
2021-09-26 23:36:00,,0824.7,4.99,0.00,29.0,27.7,00.0,38.0,30.9,11.3,0002.3,0014.72,0006.49,0005.52
2021-09-26 23:37:00,,0824.7,5.00,0.00,29.1,28.0,00.0,38.1,31.0,11.2,0002.2,0013.87,0006.53,0005.58
2021-09-26 23:38:00,,0824.7,5.00,0.00,29.2,28.3,00.0,38.1,31.1,11.3,0002.6,0013.59,0006.56,0005.65
2021-09-26 23:39:00,,0824.7,5.01,0.00,29.3,28.5,00.0,38.1,31.2,11.4,0003.1,0012.97,0006.61,0005.70
2021-09-26 23:40:00,,0824.7,5.01,0.00,29.3,27.5,00.0,38.1,30.9,11.6,0003.1,0012.85,0006.66,0005.74
2021-09-26 23:41:00,,0824.6,5.00,0.00,29.1,25.8,00.0,38.1,30.4,11.8,0003.2,0013.22,0006.70,0005.76
2021-09-26 23:42:00,,0824.8,5.01,0.00,29.0,25.8,00.0,38.1,30.4,11.4,0003.1,0013.39,0006.74,0005.79
2021-09-26 23:43:00,,0824.6,4.99,0.00,28.9,26.3,00.0,38.1,30.5,11.5,0003.0,0013.42,0006.76,0005.82
2021-09-26 23:44:00,,0824.8,5.01,0.00,28.9,26.7,00.0,38.1,30.6,11.6,0002.4,0014.48,0006.78,0005.87
2021-09-26 23:45:00,,0824.7,4.98,0.00,29.0,27.2,00.0,38.1,30.7,11.8,0002.0,0015.77,0006.87,0005.89
2021-09-26 23:46:00,,0824.8,5.01,0.00,29.0,27.6,00.0,38.1,30.9,11.5,0001.5,0016.17,0006.94,0005.92
2021-09-26 23:47:00,,0824.7,5.00,0.00,29.1,27.9,00.0,38.1,31.0,11.7,0001.4,0016.00,0006.93,0005.91
2021-09-26 23:48:00,,0824.8,5.00,0.00,29.2,28.2,00.0,38.1,31.1,11.8,0001.4,0016.39,0006.95,0005.90
2021-09-26 23:49:00,,0824.7,5.00,0.00,29.2,28.1,00.0,38.1,31.1,11.9,0001.6,0017.16,0006.96,0005.89
2021-09-26 23:50:00,,0824.7,5.00,0.00,29.2,26.6,00.0,38.1,30.7,11.9,0001.3,0018.22,0006.96,0005.87
2021-09-26 23:51:00,,0824.7,5.01,0.00,29.0,25.6,00.0,38.1,30.4,12.0,0001.6,0018.07,0006.90,0005.86
2021-09-26 23:52:00,,0824.8,5.00,0.00,29.0,25.9,00.0,38.1,30.5,12.1,0001.5,0018.46,0006.91,0005.88
2021-09-26 23:53:00,,0824.8,5.00,0.00,28.9,26.4,00.0,38.0,30.6,12.0,0001.5,0018.61,0006.94,0005.88
2021-09-26 23:54:00,,0824.8,4.98,0.00,28.9,26.8,00.0,38.0,30.7,12.1,0001.5,0018.95,0006.94,0005.88
2021-09-26 23:55:00,,0824.8,4.99,0.00,29.0,27.3,00.0,38.0,30.8,12.1,0001.6,0018.25,0006.95,0005.88
2021-09-26 23:56:00,,0824.8,5.00,0.00,29.0,27.6,00.0,38.0,30.9,12.0,0001.8,0017.37,0006.92,0005.89
2021-09-26 23:57:00,,0824.8,5.00,0.00,29.1,28.0,00.0,38.1,31.0,11.9,0002.6,0016.57,0006.83,0005.86
2021-09-26 23:58:00,,0824.9,5.00,0.00,29.2,28.2,00.0,38.1,31.1,11.6,0003.0,0016.86,0006.82,0005.84
2021-09-26 23:59:00,,0824.9,5.01,0.00,29.2,28.3,00.0,38.1,31.1,11.6,0003.0,0016.57,0006.76,0005.83
